KUIPER-00132

Last updated on Mon Oct 20 2025 00:02:06 GMT+0000 (Coordinated Universal Time)

1 65763U 25217B 25292.26562721 .00029672 00000+0 85178-3 0 9992 2 65763 51.8647 327.8959 0006080 182.0780 178.0182 15.35592161 3663
UTC large
Height (km)
Speed (km/s)
/
Latitude / Longitude
Inclination (degrees)
Orbital Period (minutes)
Azimuth
Elevation
Range (km)
Doppler Factor

Next 0 passes for location: London (51.5072 / 0.1276)

Sorry there are no passes over London.